Location: Central Falls
(41.8900°N, 71.3929°W)
Time: 11:48:00
(UTC+00:00)

A-11 Canister half - Pass Details

Date: 10 December 2023
Orbit: 1512 x 1687 km, 47.2° (Epoch: 20 February)

Event Time Altitude Azimuth Distance (km) Brightness Sun altitude
Rises 05:56:02 0° 270° (W) 4,736 - -65.0°
Reaches altitude 10° 05:59:07 10° 273° (W) 3,775 - -64.6°
Maximum altitude 06:08:42 65° 355° (N) 1,753 - -63.2°
Exits shadow 06:17:30 14° 76° (ENE) 3,563 11.1 -61.9°
Drops below altitude 10° 06:18:39 10° 77° (ENE) 3,912 11.4 -61.7°
Sets 06:21:55 0° 81° (E) 4,916 12.0 -61.2°
